{"data":{"norad_id":66766,"intl_designator":"2025-276DE","name":"T.MICROSAT-1","alt_names":[],"object_type":"PAYLOAD","status":"ACTIVE","operator":null,"country":"ROC","launch_date":"2025-11-28","launch_site_code":"AFWTR","launch_vehicle":null,"mission":null,"orbit_class":"UNKNOWN","rcs_meters":null,"size_class":null,"mass_kg":null,"dimensions":null,"purposes":[],"wikipedia_slug":null,"has_3d_model":false,"image_url":null,"decayed_at":null,"tle_current":{"epoch":"2026-09-20T10:51:37.391904Z","epoch_age_seconds":121934,"freshness":"FRESH","line1":"1 66766U 25276DE  26263.45251611  .00003371  00000+0  15213-3 0  9995","line2":"2 66766  97.4079 335.7047 0001450 115.1541 244.9845 15.21675900 44927","mean_motion":15.216759,"eccentricity":0.000145,"inclination_deg":97.4079,"raan_deg":335.7047,"arg_perigee_deg":115.1541,"mean_anomaly_deg":244.9845,"bstar":0.00015213,"rev_number":4492,"period_min":94.632503544283,"perigee_km":499.78778916725,"apogee_km":501.78267661479,"semimajor_km":6878.922232891,"source":"CELESTRAK","updated_at":"2026-09-21T09:00:16.184439Z"}}}